1547809200.06,36642,0.0,0.0,-11.85,-14.55,-14.51,0,*6C
1547809201.31,36643,0.0,0.0,-11.83,-14.51,-14.37,0,*6F
1547809202.58,36644,0.0,0.0,-11.83,-14.55,-14.55,0,*68
1547809203.88,36645,0.0,0.0,-11.85,-14.55,-14.51,0,*6B
1547809205.18,36646,0.0,0.0,-11.85,-14.51,-14.51,0,*6C
1547809206.44,36647,0.0,0.0,-11.85,-14.89,-14.75,0,*6E
1547809207.71,36648,0.0,0.0,-11.85,-15.11,-14.97,0,*6D
1547809208.97,36649,0.0,0.0,-11.85,-15.01,-14.89,0,*62
1547809210.19,36650,0.0,0.0,-11.87,-15.15,-15.07,0,*6A
1547809211.44,36651,0.0,0.0,-11.87,-15.29,-15.21,0,*60
1547809212.71,36652,0.0,0.0,-11.89,-15.15,-15.01,0,*60
1547809213.97,36653,0.0,0.0,-11.89,-15.01,-14.89,0,*65
1547809215.23,36654,0.0,0.0,-11.89,-15.21,-15.07,0,*67
1547809216.52,36655,0.0,0.0,-11.89,-15.21,-15.01,0,*60
1547809217.74,36656,0.0,0.0,-11.91,-15.07,-14.89,0,*6F
1547809219.0,36657,0.0,0.0,-11.89,-14.93,-14.89,0,*6B
1547809220.24,36658,0.0,0.0,-11.91,-15.07,-14.93,0,*6A
1547809221.46,36659,0.0,0.0,-11.91,-15.25,-15.07,0,*67
1547809222.73,36660,0.0,0.0,-11.91,-15.21,-14.97,0,*61
1547809223.99,36661,0.0,0.0,-11.95,-14.97,-14.83,0,*6D
1547809225.23,36662,0.0,0.0,-11.95,-15.07,-14.93,0,*67
1547809226.5,36663,0.0,0.0,-11.95,-14.97,-14.79,0,*6A
1547809227.74,36664,0.0,0.0,-11.95,-14.83,-14.69,0,*69
1547809228.99,36665,0.0,0.0,-11.95,-14.79,-14.65,0,*61
1547809230.26,36666,0.0,0.0,-11.91,-14.83,-14.93,0,*6A
1547809231.52,36667,0.0,0.0,-11.95,-15.21,-14.97,0,*62
1547809232.76,36668,0.0,0.0,-11.99,-15.11,-15.01,0,*6C
1547809234.01,36669,0.0,0.0,-11.99,-15.39,-15.29,0,*6D
1547809235.26,36670,0.0,0.0,-11.99,-15.39,-15.25,0,*69
1547809236.48,36671,0.0,0.0,-11.99,-15.29,-15.15,0,*6A
1547809237.72,36672,0.0,0.0,-11.99,-15.07,-15.01,0,*60
1547809238.98,36673,0.0,0.0,-11.99,-15.21,-15.21,0,*67
1547809240.27,36674,0.0,0.0,-12.01,-15.35,-15.35,0,*62
1547809241.56,36675,0.0,0.0,-12.01,-15.43,-15.35,0,*62
1547809242.81,36676,0.0,0.0,-12.01,-15.29,-15.15,0,*6F
1547809244.1,36677,0.0,0.0,-12.01,-15.01,-14.79,0,*6F
1547809245.36,36678,0.0,0.0,-12.01,-14.89,-14.79,0,*61
1547809246.63,36679,0.0,0.0,-12.01,-15.07,-14.93,0,*63
1547809247.9,36680,0.0,0.0,-12.01,-14.93,-14.89,0,*62
1547809249.13,36681,0.0,0.0,-12.05,-15.11,-14.97,0,*63
1547809250.41,36682,0.0,0.0,-12.05,-15.39,-15.39,0,*6F
1547809251.65,36683,0.0,0.0,-12.05,-15.25,-15.21,0,*6A
1547809252.92,36684,0.0,0.0,-12.07,-15.25,-15.35,0,*6A
1547809254.16,36685,0.0,0.0,-12.07,-15.49,-15.49,0,*6A
1547809255.43,36686,0.0,0.0,-12.07,-15.49,-15.39,0,*6E
1547809256.7,36687,0.0,0.0,-12.05,-15.39,-15.35,0,*66
1547809257.93,36688,0.0,0.0,-12.07,-15.11,-15.07,0,*60
1547809259.18,36689,0.0,0.0,-12.09,-15.01,-15.01,0,*68
1547809260.4,36690,0.0,0.0,-12.09,-15.15,-15.15,0,*60
1547809261.65,36691,0.0,0.0,-12.11,-15.25,-15.25,0,*68
1547809262.91,36692,0.0,0.0,-12.09,-15.43,-15.43,0,*62
1547809264.18,36693,0.0,0.0,-12.11,-15.39,-15.29,0,*6B
1547809265.46,36694,0.0,0.0,-12.11,-15.53,-15.39,0,*61
1547809266.7,36695,0.0,0.0,-12.11,-15.53,-15.53,0,*6C
1547809267.95,36696,0.0,0.0,-12.11,-15.29,-15.25,0,*63
1547809269.22,36697,0.0,0.0,-12.11,-15.53,-15.39,0,*62
1547809270.47,36698,0.0,0.0,-12.13,-15.39,-15.25,0,*6E
1547809271.73,36699,0.0,0.0,-12.17,-15.35,-15.35,0,*66
1547809272.97,36700,0.0,0.0,-12.17,-15.29,-15.21,0,*6F
1547809274.19,36701,0.0,0.0,-12.17,-15.29,-15.25,0,*6A
1547809275.44,36702,0.0,0.0,-12.17,-15.49,-15.43,0,*6F
1547809276.68,36703,0.0,0.0,-12.19,-15.63,-15.63,0,*6A
1547809277.94,36704,0.0,0.0,-12.19,-15.81,-15.75,0,*66
1547809279.17,36705,0.0,0.0,-12.19,-15.99,-15.99,0,*6C
1547809280.39,36706,0.0,0.0,-12.21,-15.95,-15.99,0,*68
1547809281.6,36707,0.0,0.0,-12.21,-15.75,-15.67,0,*66
1547809282.87,36708,0.0,0.0,-12.23,-15.39,-15.29,0,*69
1547809284.11,36709,0.0,0.0,-12.23,-15.25,-15.15,0,*6A
1547809285.37,36710,0.0,0.0,-12.23,-15.11,-14.97,0,*6E
1547809286.61,36711,0.0,0.0,-12.23,-15.29,-15.15,0,*6F
1547809287.88,36712,0.0,0.0,-12.23,-15.43,-15.29,0,*6F
1547809289.15,36713,0.0,0.0,-12.23,-15.39,-15.25,0,*6F
1547809290.43,36714,0.0,0.0,-12.23,-15.39,-15.29,0,*64
1547809291.67,36715,0.0,0.0,-12.23,-15.67,-15.53,0,*63
1547809292.95,36716,0.0,0.0,-12.23,-15.57,-15.57,0,*67
1547809294.24,36717,0.0,0.0,-12.27,-15.35,-15.35,0,*62
1547809295.49,36718,0.0,0.0,-12.23,-15.29,-15.29,0,*69
1547809296.76,36719,0.0,0.0,-12.27,-15.63,-15.57,0,*6B
1547809298.0,36720,0.0,0.0,-12.27,-15.71,-15.71,0,*66
1547809299.22,36721,0.0,0.0,-12.29,-15.63,-15.63,0,*69
1547809300.44,36722,0.0,0.0,-12.29,-15.63,-15.49,0,*62
1547809301.69,36723,0.0,0.0,-12.29,-15.85,-15.75,0,*64
1547809302.98,36724,0.0,0.0,-12.31,-15.81,-15.81,0,*65
1547809304.22,36725,0.0,0.0,-12.33,-15.81,-15.75,0,*6D
1547809305.52,36726,0.0,0.0,-12.31,-15.81,-15.81,0,*67
1547809306.77,36727,0.0,0.0,-12.31,-15.75,-15.63,0,*61
1547809308.0,36728,0.0,0.0,-12.33,-15.21,-15.11,0,*68
1547809309.23,36729,0.0,0.0,-12.33,-15.11,-15.01,0,*6B
1547809310.49,36730,0.0,0.0,-12.33,-14.93,-14.79,0,*66
1547809311.75,36731,0.0,0.0,-12.33,-14.93,-14.79,0,*67
1547809313.02,36732,0.0,0.0,-12.31,-15.01,-14.89,0,*63
1547809314.25,36733,0.0,0.0,-12.33,-14.89,-14.79,0,*6E
1547809315.49,36734,0.0,0.0,-12.33,-14.93,-14.89,0,*6D
1547809316.73,36735,0.0,0.0,-12.33,-14.89,-14.79,0,*68
1547809317.98,36736,0.0,0.0,-12.31,-14.89,-14.89,0,*66
1547809319.22,36737,0.0,0.0,-12.33,-15.35,-15.25,0,*64
1547809320.49,36738,0.0,0.0,-12.33,-15.39,-15.39,0,*6A
1547809321.74,36739,0.0,0.0,-12.33,-15.53,-15.39,0,*67
1547809323.01,36740,0.0,0.0,-12.35,-15.49,-15.39,0,*64
1547809324.27,36741,0.0,0.0,-12.33,-15.39,-15.35,0,*68
1547809325.51,36742,0.0,0.0,-12.39,-15.21,-15.11,0,*6E
1547809326.75,36743,0.0,0.0,-12.39,-15.07,-14.93,0,*60
1547809328.03,36744,0.0,0.0,-12.35,-15.01,-14.93,0,*6D
1547809329.31,36745,0.0,0.0,-12.35,-14.93,-14.79,0,*62
1547809330.55,36746,0.0,0.0,-12.35,-15.11,-15.07,0,*62
1547809331.83,36747,0.0,0.0,-12.35,-15.01,-14.93,0,*6E
1547809333.09,36748,0.0,0.0,-12.35,-15.01,-14.89,0,*6A
1547809334.33,36749,0.0,0.0,-12.39,-15.07,-14.93,0,*6A
1547809335.55,36750,0.0,0.0,-12.39,-15.15,-15.11,0,*6A
1547809336.76,36751,0.0,0.0,-12.39,-15.25,-15.15,0,*6C
1547809338.01,36752,0.0,0.0,-12.39,-15.53,-15.43,0,*6D
1547809339.28,36753,0.0,0.0,-12.39,-15.43,-15.43,0,*6D
1547809340.53,36754,0.0,0.0,-12.39,-15.53,-15.43,0,*6B
1547809341.75,36755,0.0,0.0,-12.39,-15.29,-15.25,0,*67
1547809342.99,36756,0.0,0.0,-12.41,-15.29,-15.15,0,*68
1547809344.26,36757,0.0,0.0,-12.41,-15.43,-15.29,0,*6A
1547809345.55,36758,0.0,0.0,-12.41,-15.35,-15.35,0,*69
1547809346.81,36759,0.0,0.0,-12.41,-15.21,-15.29,0,*60
1547809348.05,36760,0.0,0.0,-12.43,-15.29,-15.21,0,*68
1547809349.26,36761,0.0,0.0,-12.43,-15.11,-15.11,0,*61
1547809350.5,36762,0.0,0.0,-12.41,-15.29,-15.15,0,*6F
1547809351.74,36763,0.0,0.0,-12.43,-15.29,-15.21,0,*6B
1547809352.97,36764,0.0,0.0,-12.43,-15.21,-15.15,0,*63
1547809354.21,36765,0.0,0.0,-12.43,-15.11,-15.01,0,*64
1547809355.46,36766,0.0,0.0,-12.43,-15.43,-15.29,0,*6A
1547809356.72,36767,0.0,0.0,-12.43,-15.57,-15.35,0,*63
1547809357.97,36768,0.0,0.0,-12.43,-15.35,-15.29,0,*65
1547809359.2,36769,0.0,0.0,-12.43,-15.21,-15.15,0,*6E
1547809360.46,36770,0.0,0.0,-12.45,-15.21,-15.15,0,*60
1547809361.75,36771,0.0,0.0,-12.45,-15.21,-15.21,0,*66
1547809362.99,36772,0.0,0.0,-12.45,-15.11,-15.11,0,*65
1547809364.23,36773,0.0,0.0,-12.45,-15.15,-15.15,0,*64
1547809365.49,36774,0.0,0.0,-12.45,-15.21,-15.15,0,*64
1547809366.74,36775,0.0,0.0,-12.45,-15.15,-15.15,0,*62
1547809368.0,36776,0.0,0.0,-12.45,-14.93,-14.89,0,*6A
1547809369.27,36777,0.0,0.0,-12.45,-14.75,-14.61,0,*65
1547809370.56,36778,0.0,0.0,-12.45,-14.83,-14.75,0,*66
1547809371.83,36779,0.0,0.0,-12.45,-14.93,-14.89,0,*65
1547809373.09,36780,0.0,0.0,-12.45,-14.89,-14.75,0,*6B
1547809374.38,36781,0.0,0.0,-12.45,-14.79,-14.75,0,*65
1547809375.64,36782,0.0,0.0,-12.45,-14.89,-14.75,0,*69
1547809376.91,36783,0.0,0.0,-12.45,-14.89,-14.75,0,*68
1547809378.18,36784,0.0,0.0,-12.45,-14.61,-14.55,0,*6B
1547809379.44,36785,0.0,0.0,-12.45,-14.61,-14.55,0,*6A
1547809380.7,36786,0.0,0.0,-12.45,-14.61,-14.43,0,*6E
1547809381.97,36787,0.0,0.0,-12.45,-14.61,-14.51,0,*6C
1547809383.27,36788,0.0,0.0,-12.45,-14.43,-14.47,0,*64
1547809384.54,36789,0.0,0.0,-12.45,-14.47,-14.37,0,*66
1547809385.79,36790,0.0,0.0,-12.45,-14.23,-14.23,0,*69
1547809387.01,36791,0.0,0.0,-12.43,-14.29,-14.23,0,*64
1547809388.26,36792,0.0,0.0,-12.43,-14.47,-14.33,0,*6E
1547809389.49,36793,0.0,0.0,-12.43,-14.61,-14.43,0,*6C
1547809390.73,36794,0.0,0.0,-12.43,-14.61,-14.47,0,*6F
1547809391.97,36795,0.0,0.0,-12.43,-14.61,-14.55,0,*6D
1547809393.2,36796,0.0,0.0,-12.43,-14.69,-14.55,0,*66
1547809394.44,36797,0.0,0.0,-12.43,-14.61,-14.55,0,*6F
1547809395.7,36798,0.0,0.0,-12.43,-14.75,-14.55,0,*65
1547809396.94,36799,0.0,0.0,-12.43,-14.75,-14.69,0,*6B
1547809398.17,36800,0.0,0.0,-12.43,-14.69,-14.55,0,*66
1547809399.4,36801,0.0,0.0,-12.43,-14.69,-14.55,0,*67
1547809400.64,36802,0.0,0.0,-12.43,-14.55,-14.33,0,*6B
1547809401.88,36803,0.0,0.0,-12.41,-14.33,-14.23,0,*69
1547809403.15,36804,0.0,0.0,-12.41,-14.47,-14.33,0,*6C
1547809404.41,36805,0.0,0.0,-12.41,-14.43,-14.33,0,*69
1547809405.7,36806,0.0,0.0,-12.41,-14.55,-14.47,0,*6E
1547809406.94,36807,0.0,0.0,-12.43,-14.61,-14.55,0,*69
1547809408.23,36808,0.0,0.0,-12.41,-14.55,-14.43,0,*64
1547809409.45,36809,0.0,0.0,-12.41,-14.69,-14.61,0,*6A
1547809410.66,36810,0.0,0.0,-12.43,-14.69,-14.69,0,*68
1547809411.95,36811,0.0,0.0,-12.41,-14.55,-14.55,0,*6B
1547809413.19,36812,0.0,0.0,-12.41,-14.23,-14.15,0,*6D
1547809414.43,36813,0.0,0.0,-12.41,-14.15,-14.11,0,*6D
1547809415.67,36814,0.0,0.0,-12.41,-14.15,-14.11,0,*6A
1547809416.92,36815,0.0,0.0,-12.43,-14.15,-14.01,0,*68
1547809418.19,36816,0.0,0.0,-12.41,-14.11,-14.01,0,*6D
1547809419.46,36817,0.0,0.0,-12.39,-14.05,-13.83,0,*6B
1547809420.71,36818,0.0,0.0,-12.35,-13.93,-13.79,0,*65
1547809421.98,36819,0.0,0.0,-12.35,-13.87,-13.73,0,*6B
1547809423.27,36820,0.0,0.0,-12.35,-14.01,-13.87,0,*63
1547809424.54,36821,0.0,0.0,-12.39,-14.01,-14.05,0,*63
1547809425.82,36822,0.0,0.0,-12.35,-14.15,-14.01,0,*6D
1547809427.06,36823,0.0,0.0,-12.35,-14.19,-14.19,0,*69
1547809428.34,36824,0.0,0.0,-12.35,-14.15,-14.05,0,*6F
1547809429.59,36825,0.0,0.0,-12.35,-14.19,-14.15,0,*63
1547809430.86,36826,0.0,0.0,-12.35,-14.19,-14.05,0,*61
1547809432.13,36827,0.0,0.0,-12.35,-14.47,-14.37,0,*6A
1547809433.38,36828,0.0,0.0,-12.33,-14.47,-14.33,0,*67
1547809434.6,36829,0.0,0.0,-12.33,-14.23,-14.19,0,*6C
1547809435.88,36830,0.0,0.0,-12.31,-14.15,-14.01,0,*6A
1547809437.13,36831,0.0,0.0,-12.33,-14.15,-14.01,0,*69
1547809438.35,36832,0.0,0.0,-12.33,-14.23,-14.15,0,*6A
1547809439.59,36833,0.0,0.0,-12.31,-14.33,-14.19,0,*64
1547809440.81,36834,0.0,0.0,-12.33,-14.23,-14.15,0,*6C
1547809442.06,36835,0.0,0.0,-12.31,-14.23,-14.15,0,*6F
1547809443.34,36836,0.0,0.0,-12.31,-14.23,-14.05,0,*6D
1547809444.59,36837,0.0,0.0,-12.31,-14.19,-14.19,0,*68
1547809445.86,36838,0.0,0.0,-12.31,-14.19,-14.05,0,*6A
1547809447.11,36839,0.0,0.0,-12.33,-14.19,-14.05,0,*69
1547809448.36,36840,0.0,0.0,-12.33,-14.15,-14.05,0,*6B
1547809449.61,36841,0.0,0.0,-12.31,-14.15,-14.15,0,*69
1547809450.89,36842,0.0,0.0,-12.31,-14.15,-14.05,0,*6B
1547809452.14,36843,0.0,0.0,-12.31,-14.23,-14.15,0,*6E
1547809453.39,36844,0.0,0.0,-12.31,-14.37,-14.37,0,*6C
1547809454.69,36845,0.0,0.0,-12.31,-14.47,-14.47,0,*6D
1547809455.97,36846,0.0,0.0,-12.31,-14.47,-14.37,0,*69
1547809457.25,36847,0.0,0.0,-12.31,-14.47,-14.37,0,*68
1547809458.52,36848,0.0,0.0,-12.31,-14.51,-14.37,0,*60
1547809459.79,36849,0.0,0.0,-12.31,-14.51,-14.37,0,*61
1547809461.07,36850,0.0,0.0,-12.31,-14.51,-14.33,0,*6D
1547809462.34,36851,0.0,0.0,-12.31,-14.51,-14.37,0,*68
1547809463.58,36852,0.0,0.0,-12.31,-14.61,-14.37,0,*68
1547809464.83,36853,0.0,0.0,-12.31,-14.23,-14.19,0,*63
1547809466.08,36854,0.0,0.0,-12.31,-14.19,-14.15,0,*61
1547809467.33,36855,0.0,0.0,-12.31,-14.33,-14.23,0,*6D
1547809468.57,36856,0.0,0.0,-12.31,-14.33,-14.19,0,*67
1547809469.85,36857,0.0,0.0,-12.29,-14.01,-13.97,0,*6F
1547809471.11,36858,0.0,0.0,-12.27,-13.87,-13.73,0,*6D
1547809472.34,36859,0.0,0.0,-12.27,-13.73,-13.73,0,*67
1547809473.64,36860,0.0,0.0,-12.27,-14.01,-13.97,0,*65
1547809474.89,36861,0.0,0.0,-12.27,-14.19,-14.15,0,*60
1547809476.11,36862,0.0,0.0,-12.29,-14.19,-14.11,0,*69
1547809477.41,36863,0.0,0.0,-12.27,-14.01,-13.97,0,*66
1547809478.7,36864,0.0,0.0,-12.27,-14.01,-13.87,0,*60
1547809479.96,36865,0.0,0.0,-12.27,-13.87,-13.73,0,*63
1547809481.23,36866,0.0,0.0,-12.27,-13.83,-13.73,0,*64
1547809482.53,36867,0.0,0.0,-12.27,-13.97,-13.97,0,*6A
1547809483.79,36868,0.0,0.0,-12.23,-13.93,-13.83,0,*60
1547809485.05,36869,0.0,0.0,-12.23,-13.83,-13.65,0,*68
1547809486.32,36870,0.0,0.0,-12.23,-13.83,-13.69,0,*6C
1547809487.6,36871,0.0,0.0,-12.23,-13.83,-13.79,0,*6C
1547809488.87,36872,0.0,0.0,-12.27,-13.83,-13.73,0,*61
1547809490.11,36873,0.0,0.0,-12.23,-13.69,-13.65,0,*67
1547809491.34,36874,0.0,0.0,-12.23,-13.69,-13.55,0,*63
1547809492.58,36875,0.0,0.0,-12.23,-13.69,-13.65,0,*61
1547809493.84,36876,0.0,0.0,-12.23,-13.79,-13.65,0,*63
1547809495.1,36877,0.0,0.0,-12.23,-13.79,-13.65,0,*62
1547809496.37,36878,0.0,0.0,-12.23,-13.79,-13.79,0,*60
1547809497.59,36879,0.0,0.0,-12.21,-13.73,-13.65,0,*64
1547809498.83,36880,0.0,0.0,-12.21,-13.73,-13.61,0,*66
1547809500.09,36881,0.0,0.0,-12.19,-13.87,-13.73,0,*64
1547809501.32,36882,0.0,0.0,-12.21,-13.93,-13.87,0,*62
1547809502.57,36883,0.0,0.0,-12.21,-13.79,-13.79,0,*66
1547809503.84,36884,0.0,0.0,-12.19,-13.79,-13.65,0,*67
1547809505.07,36885,0.0,0.0,-12.19,-13.73,-13.65,0,*6C
1547809506.34,36886,0.0,0.0,-12.19,-13.73,-13.61,0,*6B
1547809507.61,36887,0.0,0.0,-12.19,-13.73,-13.61,0,*6A
1547809508.87,36888,0.0,0.0,-12.19,-13.79,-13.73,0,*6C
1547809510.13,36889,0.0,0.0,-12.21,-13.79,-13.61,0,*65
1547809511.37,36890,0.0,0.0,-12.17,-13.73,-13.61,0,*62
1547809512.61,36891,0.0,0.0,-12.17,-13.83,-13.69,0,*64
1547809513.85,36892,0.0,0.0,-12.17,-13.83,-13.69,0,*67
1547809515.05,36893,0.0,0.0,-12.17,-13.69,-13.69,0,*62
1547809516.29,36894,0.0,0.0,-12.13,-13.83,-13.69,0,*65
1547809517.53,36895,0.0,0.0,-12.17,-13.83,-13.73,0,*6B
1547809518.75,36896,0.0,0.0,-12.13,-13.69,-13.55,0,*6C
1547809519.99,36897,0.0,0.0,-12.17,-13.69,-13.61,0,*6E
1547809521.2,36898,0.0,0.0,-12.13,-13.55,-13.55,0,*6D
1547809522.41,36899,0.0,0.0,-12.13,-13.65,-13.51,0,*6B
1547809523.62,36900,0.0,0.0,-12.13,-13.65,-13.51,0,*6A
1547809524.86,36901,0.0,0.0,-12.11,-13.69,-13.51,0,*65
1547809526.1,36902,0.0,0.0,-12.11,-13.65,-13.51,0,*6A
1547809527.34,36903,0.0,0.0,-12.11,-13.69,-13.51,0,*67
1547809528.57,36904,0.0,0.0,-12.09,-13.93,-13.79,0,*66
1547809529.85,36905,0.0,0.0,-12.11,-13.83,-13.79,0,*6F
1547809531.09,36906,0.0,0.0,-12.11,-13.69,-13.55,0,*66
1547809532.3,36907,0.0,0.0,-12.09,-13.65,-13.51,0,*66
1547809533.54,36908,0.0,0.0,-12.11,-13.55,-13.51,0,*63
1547809534.8,36909,0.0,0.0,-12.07,-13.61,-13.47,0,*65
1547809536.09,36910,0.0,0.0,-12.07,-13.61,-13.61,0,*69
1547809537.36,36911,0.0,0.0,-12.07,-13.73,-13.61,0,*6B
1547809538.59,36912,0.0,0.0,-12.09,-13.79,-13.55,0,*6B
1547809539.83,36913,0.0,0.0,-12.01,-13.73,-13.69,0,*67
1547809541.11,36914,0.0,0.0,-12.07,-13.79,-13.79,0,*6D
1547809542.37,36915,0.0,0.0,-12.07,-13.93,-13.87,0,*69
1547809543.63,36916,0.0,0.0,-12.07,-13.97,-13.93,0,*6B
1547809544.93,36917,0.0,0.0,-12.07,-14.05,-13.97,0,*62
1547809546.21,36918,0.0,0.0,-12.07,-14.11,-13.97,0,*68
1547809547.48,36919,0.0,0.0,-12.09,-14.01,-13.97,0,*66
1547809548.72,36920,0.0,0.0,-12.09,-14.11,-14.01,0,*65
1547809549.96,36921,0.0,0.0,-12.09,-14.11,-13.97,0,*6C
1547809551.2,36922,0.0,0.0,-12.09,-13.97,-13.93,0,*62
1547809552.47,36923,0.0,0.0,-12.07,-14.19,-14.05,0,*64
1547809553.71,36924,0.0,0.0,-12.07,-14.33,-14.23,0,*6F
1547809555.0,36925,0.0,0.0,-12.07,-13.97,-13.79,0,*6F
1547809556.3,36926,0.0,0.0,-12.07,-13.97,-13.97,0,*6C
1547809557.6,36927,0.0,0.0,-12.07,-13.97,-13.97,0,*6D
1547809558.88,36928,0.0,0.0,-12.07,-13.87,-13.79,0,*63
1547809560.18,36929,0.0,0.0,-12.07,-14.05,-13.87,0,*6E
1547809561.45,36930,0.0,0.0,-12.07,-14.11,-13.97,0,*62
1547809562.72,36931,0.0,0.0,-12.07,-14.11,-13.97,0,*63
1547809563.96,36932,0.0,0.0,-12.07,-14.23,-14.11,0,*68
1547809565.23,36933,0.0,0.0,-12.07,-14.19,-14.05,0,*65
1547809566.5,36934,0.0,0.0,-12.07,-14.05,-13.93,0,*67
1547809567.77,36935,0.0,0.0,-12.07,-13.97,-13.93,0,*6A
1547809569.04,36936,0.0,0.0,-12.07,-14.11,-13.97,0,*64
1547809570.29,36937,0.0,0.0,-12.05,-14.19,-13.97,0,*6F
1547809571.55,36938,0.0,0.0,-12.07,-14.05,-13.93,0,*6B
1547809572.83,36939,0.0,0.0,-12.05,-14.05,-13.97,0,*6C
1547809574.09,36940,0.0,0.0,-12.07,-13.93,-13.87,0,*69
1547809575.37,36941,0.0,0.0,-12.07,-13.87,-13.79,0,*6C
1547809576.66,36942,0.0,0.0,-12.07,-13.97,-13.87,0,*6F
1547809577.93,36943,0.0,0.0,-12.07,-14.05,-13.93,0,*67
1547809579.16,36944,0.0,0.0,-12.05,-13.93,-13.87,0,*6F
1547809580.44,36945,0.0,0.0,-12.05,-14.05,-13.97,0,*67
1547809581.67,36946,0.0,0.0,-12.05,-13.93,-13.87,0,*6D
1547809582.9,36947,0.0,0.0,-12.05,-13.93,-13.79,0,*6D
1547809584.16,36948,0.0,0.0,-12.05,-13.87,-13.79,0,*67
1547809585.4,36949,0.0,0.0,-12.01,-13.73,-13.69,0,*68
1547809586.67,36950,0.0,0.0,-12.01,-13.61,-13.55,0,*6C
1547809587.88,36951,0.0,0.0,-11.99,-13.69,-13.55,0,*67
1547809589.15,36952,0.0,0.0,-12.01,-13.83,-13.69,0,*6D
1547809590.39,36953,0.0,0.0,-11.99,-13.87,-13.73,0,*61
1547809591.63,36954,0.0,0.0,-11.99,-13.73,-13.61,0,*6E
1547809592.88,36955,0.0,0.0,-11.99,-13.73,-13.61,0,*6F
1547809594.15,36956,0.0,0.0,-12.01,-13.83,-13.73,0,*62
1547809595.39,36957,0.0,0.0,-11.99,-13.73,-13.61,0,*6D
1547809596.63,36958,0.0,0.0,-11.99,-13.83,-13.69,0,*65
1547809597.85,36959,0.0,0.0,-11.99,-13.69,-13.55,0,*6F
1547809599.12,36960,0.0,0.0,-11.97,-13.83,-13.65,0,*6C
1547809600.37,36961,0.0,0.0,-11.99,-13.83,-13.65,0,*63
1547809601.6,36962,0.0,0.0,-11.99,-13.79,-13.65,0,*65
1547809602.87,36963,0.0,0.0,-11.97,-13.83,-13.65,0,*6F
1547809604.12,36964,0.0,0.0,-11.99,-13.83,-13.69,0,*6A
1547809605.36,36965,0.0,0.0,-11.99,-13.83,-13.69,0,*6B
1547809606.62,36966,0.0,0.0,-11.97,-13.87,-13.69,0,*62
1547809607.88,36967,0.0,0.0,-11.97,-13.87,-13.69,0,*63
1547809609.12,36968,0.0,0.0,-11.99,-13.79,-13.69,0,*63
1547809610.41,36969,0.0,0.0,-11.97,-13.83,-13.79,0,*68
1547809611.65,36970,0.0,0.0,-11.99,-13.83,-13.69,0,*6F
1547809612.89,36971,0.0,0.0,-11.97,-13.69,-13.55,0,*6B
1547809614.18,36972,0.0,0.0,-11.97,-14.01,-13.79,0,*6F
1547809615.48,36973,0.0,0.0,-11.97,-14.01,-13.83,0,*6B
1547809616.77,36974,0.0,0.0,-11.97,-13.97,-13.87,0,*60
1547809618.05,36975,0.0,0.0,-11.97,-14.15,-14.01,0,*65
1547809619.29,36976,0.0,0.0,-11.97,-14.29,-14.11,0,*68
1547809620.57,36977,0.0,0.0,-11.97,-14.15,-13.97,0,*6F
1547809621.84,36978,0.0,0.0,-11.97,-13.83,-13.69,0,*69
1547809623.1,36979,0.0,0.0,-11.97,-13.79,-13.65,0,*61
1547809624.34,36980,0.0,0.0,-11.97,-13.65,-13.51,0,*6D
1547809625.58,36981,0.0,0.0,-11.97,-13.65,-13.51,0,*6C
1547809626.84,36982,0.0,0.0,-11.95,-13.51,-13.33,0,*6E
1547809628.07,36983,0.0,0.0,-11.95,-13.61,-13.47,0,*6F
1547809629.32,36984,0.0,0.0,-11.95,-13.73,-13.61,0,*6F
1547809630.57,36985,0.0,0.0,-11.95,-13.97,-13.93,0,*69
1547809631.8,36986,0.0,0.0,-11.91,-13.93,-13.79,0,*6E
1547809633.07,36987,0.0,0.0,-11.95,-13.97,-13.79,0,*6F
1547809634.32,36988,0.0,0.0,-11.95,-14.19,-14.05,0,*6D
1547809635.57,36989,0.0,0.0,-11.95,-14.19,-14.05,0,*6C
1547809636.82,36990,0.0,0.0,-11.91,-14.23,-13.97,0,*65
1547809638.07,36991,0.0,0.0,-11.95,-14.11,-13.97,0,*61
1547809639.33,36992,0.0,0.0,-11.95,-14.11,-13.97,0,*62
1547809640.58,36993,0.0,0.0,-11.95,-14.23,-14.05,0,*6E
1547809641.79,36994,0.0,0.0,-11.95,-14.33,-14.19,0,*65
1547809643.02,36995,0.0,0.0,-11.95,-14.37,-14.23,0,*69
1547809644.29,36996,0.0,0.0,-11.97,-14.51,-14.37,0,*6D
1547809645.53,36997,0.0,0.0,-11.99,-14.43,-14.37,0,*61
1547809646.78,36998,0.0,0.0,-11.97,-14.29,-14.15,0,*6C
1547809648.07,36999,0.0,0.0,-11.97,-13.97,-13.87,0,*63
1547809649.35,37000,0.0,0.0,-11.97,-14.15,-13.97,0,*67
1547809650.64,37001,0.0,0.0,-11.97,-13.87,-13.83,0,*6F
1547809651.9,37002,0.0,0.0,-11.99,-13.87,-13.79,0,*67
1547809653.19,37003,0.0,0.0,-11.97,-14.01,-13.87,0,*60
1547809654.47,37004,0.0,0.0,-11.97,-14.11,-14.01,0,*6F
1547809655.76,37005,0.0,0.0,-11.97,-13.83,-13.79,0,*6A
1547809657.04,37006,0.0,0.0,-11.97,-14.11,-13.97,0,*65
1547809658.28,37007,0.0,0.0,-11.97,-14.23,-14.11,0,*6C
1547809659.56,37008,0.0,0.0,-11.97,-14.11,-13.97,0,*6B
1547809660.83,37009,0.0,0.0,-11.97,-14.11,-13.97,0,*6A
1547809662.13,37010,0.0,0.0,-11.97,-13.97,-13.97,0,*6B
1547809663.38,37011,0.0,0.0,-11.97,-14.15,-14.11,0,*6E
1547809664.63,37012,0.0,0.0,-11.97,-14.23,-14.15,0,*6C
1547809665.87,37013,0.0,0.0,-11.97,-14.11,-14.11,0,*68
1547809667.18,37014,0.0,0.0,-11.97,-14.01,-13.97,0,*67
1547809668.47,37015,0.0,0.0,-11.97,-13.97,-13.87,0,*6F
1547809669.77,37016,0.0,0.0,-11.97,-13.97,-13.87,0,*6C
1547809671.07,37017,0.0,0.0,-11.97,-14.01,-14.01,0,*6C
1547809672.29,37018,0.0,0.0,-11.95,-14.11,-13.93,0,*6C
1547809673.5,37019,0.0,0.0,-11.95,-13.93,-13.93,0,*60
1547809674.75,37020,0.0,0.0,-11.95,-13.83,-13.73,0,*65
1547809676.01,37021,0.0,0.0,-11.95,-13.79,-13.79,0,*6B
1547809677.3,37022,0.0,0.0,-11.97,-13.83,-13.79,0,*6F
1547809678.56,37023,0.0,0.0,-11.95,-13.79,-13.83,0,*6C
1547809679.77,37024,0.0,0.0,-11.95,-13.93,-13.93,0,*6E
1547809680.99,37025,0.0,0.0,-11.95,-13.65,-13.65,0,*6F
1547809682.26,37026,0.0,0.0,-11.91,-13.83,-13.83,0,*68
1547809683.47,37027,0.0,0.0,-11.91,-13.73,-13.73,0,*69
1547809684.69,37028,0.0,0.0,-11.91,-13.65,-13.65,0,*66
1547809685.9,37029,0.0,0.0,-11.91,-13.93,-13.93,0,*67
1547809687.13,37030,0.0,0.0,-11.91,-14.19,-14.23,0,*66
1547809688.38,37031,0.0,0.0,-11.91,-14.37,-14.47,0,*69
1547809689.65,37032,0.0,0.0,-11.95,-14.51,-14.51,0,*69
1547809690.93,37033,0.0,0.0,-11.95,-14.51,-14.51,0,*68
1547809692.15,37034,0.0,0.0,-11.91,-14.23,-14.19,0,*62
1547809693.42,37035,0.0,0.0,-11.91,-13.83,-13.83,0,*6A
1547809694.69,37036,0.0,0.0,-11.91,-13.79,-13.79,0,*69
1547809695.96,37037,0.0,0.0,-11.91,-13.83,-13.83,0,*68
1547809697.2,37038,0.0,0.0,-11.89,-13.69,-13.73,0,*65
1547809698.46,37039,0.0,0.0,-11.89,-13.69,-13.61,0,*67
1547809699.7,37040,0.0,0.0,-11.89,-13.69,-13.69,0,*61
1547809700.94,37041,0.0,0.0,-11.87,-13.79,-13.69,0,*6F
1547809702.18,37042,0.0,0.0,-11.87,-13.73,-13.79,0,*67
1547809703.4,37043,0.0,0.0,-11.87,-13.69,-13.73,0,*67
1547809704.66,37044,0.0,0.0,-11.87,-13.79,-13.79,0,*6B
1547809705.93,37045,0.0,0.0,-11.85,-14.01,-14.11,0,*69
1547809707.24,37046,0.0,0.0,-11.85,-13.83,-13.97,0,*6E
1547809708.45,37047,0.0,0.0,-11.83,-13.65,-13.73,0,*6B
1547809709.7,37048,0.0,0.0,-11.83,-13.97,-14.11,0,*6A
1547809710.92,37049,0.0,0.0,-11.83,-14.11,-14.23,0,*63
1547809712.15,37050,0.0,0.0,-11.83,-14.11,-14.29,0,*61
1547809713.39,37051,0.0,0.0,-11.83,-14.23,-14.43,0,*6D
1547809714.64,37052,0.0,0.0,-11.83,-14.15,-14.43,0,*6B
1547809715.88,37053,0.0,0.0,-11.83,-14.11,-14.43,0,*6E
1547809717.12,37054,0.0,0.0,-11.83,-14.11,-14.43,0,*69
1547809718.37,37055,0.0,0.0,-11.83,-14.11,-14.51,0,*6B
1547809719.65,37056,0.0,0.0,-11.83,-13.97,-14.51,0,*61
1547809720.93,37057,0.0,0.0,-11.83,-13.97,-14.51,0,*60
1547809722.18,37058,0.0,0.0,-11.81,-14.23,-14.65,0,*62
1547809723.49,37059,0.0,0.0,-11.81,-14.47,-14.93,0,*68
1547809724.76,37060,0.0,0.0,-11.79,-14.51,-14.93,0,*62
1547809726.01,37061,0.0,0.0,-11.79,-14.65,-14.97,0,*60
1547809727.25,37062,0.0,0.0,-11.79,-14.65,-14.93,0,*67
1547809728.46,37063,0.0,0.0,-11.79,-14.65,-14.69,0,*63
1547809729.72,37064,0.0,0.0,-11.75,-14.75,-14.79,0,*68
1547809730.99,37065,0.0,0.0,-11.75,-14.75,-14.79,0,*69
1547809732.22,37066,0.0,0.0,-11.73,-14.61,-14.61,0,*60
1547809733.47,37067,0.0,0.0,-11.75,-14.75,-14.65,0,*66
1547809734.73,37068,0.0,0.0,-11.73,-14.75,-14.61,0,*6B
1547809736.01,37069,0.0,0.0,-11.73,-14.75,-14.51,0,*69
1547809737.28,37070,0.0,0.0,-11.73,-14.75,-14.61,0,*62
1547809738.57,37071,0.0,0.0,-11.71,-14.75,-14.47,0,*65
1547809739.79,37072,0.0,0.0,-11.69,-14.61,-14.37,0,*6D
1547809741.05,37073,0.0,0.0,-11.71,-14.61,-14.43,0,*66
1547809742.27,37074,0.0,0.0,-11.69,-14.61,-14.37,0,*6B
1547809743.53,37075,0.0,0.0,-11.71,-14.61,-14.43,0,*60
1547809744.78,37076,0.0,0.0,-11.69,-14.83,-14.61,0,*66
1547809746.01,37077,0.0,0.0,-11.69,-15.01,-14.69,0,*64
1547809747.26,37078,0.0,0.0,-11.69,-14.83,-14.61,0,*68